Weather History for KAVK - September, 2013

Change the Weather History Date:

Saturday, September 7, 2013

  Actual Average Record
Temperature  
Mean Temperature 84 °F -  
Max Temperature 100 °F 91 °F 106 °F (1971)
Min Temperature 69 °F 66 °F 48 °F (1950)
Cooling Degree Days 20    
Growing Degree Days 34 (Base 50)    
Moisture  
Dew Point 60 °F    
Average Humidity 47    
Maximum Humidity 78    
Minimum Humidity 24    
Precipitation  
Precipitation 0.00 in - - ()
Sea Level Pressure  
Sea Level Pressure 29.98 in    
Wind  
Wind Speed 9 mph (South)    
Max Wind Speed 16 mph    
Max Gust Speed 23 mph    
Visibility 10 miles    
Events      
Averages and records for this station are not official NWS values.
T = Trace of Precipitation, MM = Missing Value Source: NWS Daily Summary

Daily Weather History Graph

Daily Weather History Graph

Search for Another Location

Airport or City:

Trip Planner

Search our weather history database for the weather conditions in past years. The results will help you decide how hot, cold, wet, or windy it might be!

Date:

Astronomy

Sep. 07, 2013 Rise Set
Actual Time 7:10 AM CDT 7:53 PM CDT
Civil Twilight 6:44 AM CDT 8:19 PM CDT
Nautical Twilight 6:13 AM CDT 8:50 PM CDT
Astronomical Twilight 5:41 AM CDT 9:22 PM CDT
Moon 9:21 AM CDT (9/7) 8:58 PM CDT (9/7)
Length of Visible Light 13h 35m
Length of Day
12h 43m
Waxing Crescent, 5% of the Moon is Illuminated
Sep 7
Waxing Crescent
Sep 12
First Quarter
Sep 19
Full
Sep 26
Last Quarter
Oct 4
New

Hourly Weather History & Observations

Time (CDT) Temp. Heat Index Dew Point Humidity Pressure Visibility Wind Dir Wind Speed Gust Speed Precip Events Conditions
12:10 AM 80.6 °F 81.8 °F 62.6 °F 54% 30.00 in 10.0 mi South 11.5 mph - N/A   Clear
12:30 AM 78.8 °F - 62.6 °F 57% 30.00 in 10.0 mi South 10.4 mph - N/A   Clear
12:50 AM 77.0 °F - 62.6 °F 61% 30.00 in 10.0 mi South 11.5 mph - N/A   Clear
1:10 AM 77.0 °F - 62.6 °F 61% 30.00 in 10.0 mi South 9.2 mph - N/A   Clear
1:35 AM 75.2 °F - 62.6 °F 65% 30.00 in 10.0 mi South 9.2 mph - N/A   Clear
1:50 AM 75.2 °F - 62.6 °F 65% 30.00 in 10.0 mi South 9.2 mph - N/A   Clear
2:10 AM 75.2 °F - 62.6 °F 65% 30.00 in 10.0 mi SSW 8.1 mph - N/A   Clear
2:30 AM 75.2 °F - 62.6 °F 65% 30.00 in 10.0 mi SSW 9.2 mph - N/A   Clear
2:50 AM 75.2 °F - 62.6 °F 65% 30.00 in 10.0 mi SSW 9.2 mph - N/A   Clear
3:10 AM 73.4 °F - 62.6 °F 69% 29.99 in 10.0 mi South 9.2 mph - N/A   Clear
3:30 AM 73.4 °F - 62.6 °F 69% 29.99 in 10.0 mi South 8.1 mph - N/A   Clear
3:50 AM 73.4 °F - 60.8 °F 65% 29.99 in 10.0 mi SSW 8.1 mph - N/A   Clear
4:10 AM 71.6 °F - 60.8 °F 69% 29.99 in 10.0 mi SSW 8.1 mph - N/A   Clear
4:30 AM 73.4 °F - 60.8 °F 65% 29.99 in 10.0 mi SSW 8.1 mph - N/A   Clear
4:50 AM 71.6 °F - 60.8 °F 69% 29.99 in 10.0 mi South 6.9 mph - N/A   Clear
5:10 AM 71.6 °F - 60.8 °F 69% 29.99 in 10.0 mi South 5.8 mph - N/A   Clear
5:30 AM 71.6 °F - 62.6 °F 73% 30.00 in 10.0 mi SSE 3.5 mph - N/A   Clear
5:50 AM 73.4 °F - 62.6 °F 69% 30.00 in 10.0 mi SSE 4.6 mph - N/A   Clear
6:10 AM 71.6 °F - 62.6 °F 73% 29.99 in 10.0 mi South 6.9 mph - N/A   Clear
6:30 AM 69.8 °F - 60.8 °F 73% 29.99 in 10.0 mi South 6.9 mph - N/A   Clear
6:50 AM 69.8 °F - 60.8 °F 73% 30.00 in 10.0 mi South 6.9 mph - N/A   Clear
7:10 AM 69.8 °F - 60.8 °F 73% 30.00 in 10.0 mi South 8.1 mph - N/A   Clear
7:30 AM 69.8 °F - 62.6 °F 78% 30.00 in 9.0 mi South 8.1 mph - N/A   Clear
7:50 AM 71.6 °F - 62.6 °F 73% 30.01 in 8.0 mi South 8.1 mph - N/A   Clear
8:10 AM 73.4 °F - 62.6 °F 69% 30.01 in 10.0 mi South 8.1 mph - N/A   Clear
8:30 AM 75.2 °F - 62.6 °F 65% 30.01 in 10.0 mi South 9.2 mph - N/A   Clear
8:50 AM 77.0 °F - 62.6 °F 61% 30.01 in 10.0 mi South 6.9 mph - N/A   Clear
9:10 AM 77.0 °F - 62.6 °F 61% 30.02 in 9.0 mi South 5.8 mph - N/A   Clear
9:30 AM 80.6 °F 81.8 °F 62.6 °F 54% 30.02 in 10.0 mi South 8.1 mph - N/A   Clear
9:50 AM 82.4 °F 83.4 °F 62.6 °F 51% 30.02 in 10.0 mi SSW 9.2 mph - N/A   Clear
10:10 AM 84.2 °F 85.0 °F 62.6 °F 48% 30.02 in 10.0 mi SSW 10.4 mph - N/A   Clear
10:30 AM 86.0 °F 86.1 °F 60.8 °F 43% 30.01 in 10.0 mi SW 10.4 mph - N/A   Clear
10:50 AM 87.8 °F 88.5 °F 62.6 °F 43% 30.02 in 10.0 mi SW 6.9 mph - N/A   Clear
11:10 AM 89.6 °F 90.1 °F 62.6 °F 40% 30.02 in 10.0 mi WSW 6.9 mph - N/A   Clear
11:30 AM 91.4 °F 91.4 °F 60.8 °F 36% 30.01 in 10.0 mi WSW 5.8 mph - N/A   Clear
11:50 AM 93.2 °F 93.3 °F 60.8 °F 34% 30.01 in 10.0 mi SSW 5.8 mph - N/A   Clear
12:10 PM 95.0 °F 94.4 °F 59.0 °F 30% 30.01 in 10.0 mi SSW 5.8 mph - N/A   Clear
12:30 PM 95.0 °F 96.0 °F 62.6 °F 34% 30.01 in 10.0 mi SSW 5.8 mph - N/A   Clear
12:50 PM 98.6 °F 99.4 °F 60.8 °F 29% 30.00 in 10.0 mi South 6.9 mph - N/A   Clear
1:10 PM 96.8 °F 96.2 °F 59.0 °F 28% 30.00 in 10.0 mi South 5.8 mph - N/A   Clear
1:30 PM 98.6 °F 97.6 °F 57.2 °F 25% 29.99 in 10.0 mi South 8.1 mph - N/A   Clear
1:50 PM 98.6 °F 98.5 °F 59.0 °F 27% 29.99 in 10.0 mi SE 5.8 mph - N/A   Clear
2:10 PM 98.6 °F 98.5 °F 59.0 °F 27% 29.98 in 10.0 mi SSE 8.1 mph - N/A   Clear
2:30 PM 98.6 °F 97.6 °F 57.2 °F 25% 29.97 in 10.0 mi SSE 5.8 mph - N/A   Clear
2:50 PM 100.4 °F 99.7 °F 57.2 °F 24% 29.96 in 10.0 mi SW 11.5 mph 17.3 mph N/A   Clear
3:10 PM 100.4 °F 99.7 °F 57.2 °F 24% 29.96 in 10.0 mi South 11.5 mph 23.0 mph N/A   Clear
3:30 PM 100.4 °F 99.7 °F 57.2 °F 24% 29.95 in 10.0 mi South 9.2 mph - N/A   Clear
3:55 PM 100.4 °F 99.7 °F 57.2 °F 24% 29.94 in 10.0 mi SSE 10.4 mph 17.3 mph N/A   Clear
4:10 PM 100.4 °F 99.7 °F 57.2 °F 24% 29.94 in 10.0 mi SSW 16.1 mph - N/A   Clear
4:30 PM 100.4 °F 99.7 °F 57.2 °F 24% 29.93 in 10.0 mi SE 8.1 mph 16.1 mph N/A   Clear
4:50 PM 100.4 °F 99.7 °F 57.2 °F 24% 29.92 in 10.0 mi SSW 11.5 mph 19.6 mph N/A   Clear
5:10 PM 100.4 °F 99.7 °F 57.2 °F 24% 29.92 in 10.0 mi South 9.2 mph 16.1 mph N/A   Clear
5:30 PM 100.4 °F 99.7 °F 57.2 °F 24% 29.92 in 10.0 mi SSE 8.1 mph 16.1 mph N/A   Clear
5:50 PM 100.4 °F 99.7 °F 57.2 °F 24% 29.92 in 10.0 mi South 15.0 mph - N/A   Clear
6:10 PM 100.4 °F 99.7 °F 57.2 °F 24% 29.92 in 10.0 mi South 6.9 mph - N/A   Clear
6:30 PM 98.6 °F 98.5 °F 59.0 °F 27% 29.91 in 10.0 mi South 15.0 mph 18.4 mph N/A   Clear
6:50 PM 98.6 °F 97.6 °F 57.2 °F 25% 29.91 in 10.0 mi SSE 13.8 mph - N/A   Clear
7:10 PM 96.8 °F 96.2 °F 59.0 °F 28% 29.92 in 10.0 mi SSE 11.5 mph - N/A   Clear
7:30 PM 95.0 °F 94.4 °F 59.0 °F 30% 29.92 in 10.0 mi SSE 11.5 mph - N/A   Clear
7:50 PM 93.2 °F 92.6 °F 59.0 °F 32% 29.92 in 10.0 mi SSE 11.5 mph - N/A   Clear
8:10 PM 91.4 °F 90.7 °F 59.0 °F 34% 29.92 in 10.0 mi SSE 10.4 mph - N/A   Clear
8:30 PM 91.4 °F 90.7 °F 59.0 °F 34% 29.93 in 10.0 mi SSE 10.4 mph - N/A   Clear
8:50 PM 89.6 °F 88.9 °F 59.0 °F 36% 29.93 in 10.0 mi SSE 11.5 mph - N/A   Clear
9:10 PM 87.8 °F 87.1 °F 59.0 °F 38% 29.93 in 10.0 mi SSE 11.5 mph - N/A   Clear
9:30 PM 86.0 °F 85.4 °F 59.0 °F 40% 29.94 in 10.0 mi SSE 10.4 mph - N/A   Clear
9:50 PM 84.2 °F 83.8 °F 59.0 °F 42% 29.94 in 10.0 mi SSE 11.5 mph - N/A   Clear
10:10 PM 84.2 °F 83.8 °F 59.0 °F 42% 29.94 in 10.0 mi SSE 10.4 mph - N/A   Clear
10:30 PM 82.4 °F 82.5 °F 59.0 °F 45% 29.95 in 10.0 mi South 10.4 mph - N/A   Clear
10:50 PM 82.4 °F 82.5 °F 59.0 °F 45% 29.96 in 10.0 mi South 9.2 mph - N/A   Clear
11:10 PM 80.6 °F 81.5 °F 60.8 °F 51% 29.96 in 10.0 mi SSE 9.2 mph - N/A   Clear
11:30 PM 80.6 °F 81.5 °F 60.8 °F 51% 29.96 in 10.0 mi South 9.2 mph - N/A   Clear
11:50 PM 78.8 °F - 59.0 °F 51% 29.96 in 10.0 mi South 8.1 mph - N/A   Clear